Flag for Australia Weather past 2 weeks in Canberra, Australian Capital Territory, Australia

Now
66 °F

Sunny.


Feels Like: 66 °F
Forecast: 55 / 84 °F
Wind: 2 mph from South

Location: Canberra Airport

Current Time: Dec 22, 2014 at 8:18:26 AM

Latest Report: Dec 22, 2014 at 8:00 AM


Visibility: 10 mi

Pressure: 30.04 "Hg

Humidity: 78%

Dew point: 59 °F

Location of CanberraLocation

Historic Weather in Canberra — Graph

°F

Canberra temperature yesterday

Maximum temperature yesterday: 86 °F (at 3:30 PM)
Minimum temperature yesterday: 55 °F (at 6:00 AM)
Average temperature yesterday: 70 °F

Past Weeks' High & Low Weather Summary

 TemperatureHumidityPressure
High90 °F (Dec 16, 1:30 PM)100% (Dec 8, 4:00 AM)30.12 "Hg (Dec 8, 4:00 AM)
Low45 °F (Dec 14, 5:30 AM)10% (Dec 16, 6:00 PM)29.47 "Hg (Dec 16, 1:30 PM)
Average66 °F61%29.88 "Hg
* Reported Dec 7 7:00 AM — Dec 22 7:00 AM, Canberra, Weather by CustomWeather, © 2014

Note: Actual official high and low records may vary slightly from our data, if they occured in-between our weather recording intervals... More about our weather records

Advertising

Canberra weather history for previous 24 hours

 ConditionsComfort  
Time TempWeatherWind HumidityBarometerVisibility
7:00 AM
Dec 22
64 °FSunny.6 mph88%30.01 "Hg10 mi
6:30 AM61 °FSunny.3 mph94%30.01 "Hg10 mi
6:00 AM59 °FSunny.No wind94%30.01 "Hg10 mi
5:30 AM59 °FClear.5 mph94%30.01 "Hg10 mi
5:00 AM59 °FClear.5 mph94%30.01 "Hg10 mi
4:30 AM59 °FClear.No wind88%29.98 "Hg10 mi
4:00 AM61 °FClear.6 mph94%29.98 "HgN/A
3:30 AM63 °FClear.3 mph88%29.98 "HgN/A
3:00 AM63 °FClear.5 mph88%30.01 "HgN/A
2:30 AM63 °FClear.7 mph88%30.01 "HgN/A
2:00 AM64 °FClear.5 mph83%30.01 "HgN/A
1:30 AM66 °FClear.6 mph78%30.01 "HgN/A
1:00 AM66 °FClear.5 mph83%30.01 "HgN/A
12:30 AM68 °FClear.5 mph78%30.01 "HgN/A
12:00 AM68 °FClear.5 mph73%30.01 "HgN/A
11:30 PM
Dec 21
70 °FClear.3 mph73%30.01 "HgN/A
11:00 PM72 °FClear.7 mph69%30.01 "HgN/A
10:00 PM72 °FClear.14 mph65%30.01 "HgN/A
9:30 PM66 °FClear.7 mph49%29.98 "HgN/A
9:00 PM68 °FClear.6 mph46%29.98 "HgN/A
8:30 PM75 °FClear.6 mph34%29.98 "HgN/A
8:00 PM79 °FSunny.8 mph28%29.98 "HgN/A
7:00 PM84 °FSunny.10 mph25%29.95 "HgN/A
6:00 PM86 °FSunny.9 mph24%29.95 "Hg10 mi
5:30 PM84 °FSunny.12 mph25%29.95 "Hg10 mi
5:00 PM82 °FSunny.8 mph26%29.95 "Hg10 mi
4:30 PM84 °FSunny.9 mph27%29.95 "Hg10 mi
4:00 PM84 °FSunny.10 mph27%29.98 "Hg10 mi
3:30 PM86 °FSunny.10 mph25%29.98 "Hg10 mi
3:00 PM82 °FSunny.8 mph30%29.98 "Hg10 mi
2:00 PM84 °FSunny.14 mph29%30.01 "Hg10 mi
1:30 PM81 °FSunny.12 mph32%30.01 "Hg10 mi
1:00 PM81 °FSunny.10 mph32%30.01 "Hg10 mi
12:00 PM79 °FPassing clouds.10 mph39%30.07 "HgN/A
11:00 AM73 °FPassing clouds.6 mph53%30.07 "HgN/A
10:30 AM72 °FPassing clouds.6 mph57%30.07 "HgN/A
10:00 AM70 °FPassing clouds.6 mph57%30.07 "HgN/A
9:30 AM68 °FPassing clouds.6 mph60%30.07 "HgN/A
9:00 AM66 °FSunny.5 mph64%30.09 "Hg10 mi
8:30 AM64 °FPassing clouds.3 mph68%30.07 "HgN/A
8:00 AM63 °FPassing clouds.3 mph73%30.07 "HgN/A
Weather by CustomWeather, © 2014

See weather overviewHow to use our weather pages